Location: Bishopstone
(51.0167°N, 1.9000°W)
Time: 13:25:50
(UTC+00:00)

ASTEX 1 - Pass Details

Date: 16 September 2019
Orbit: 720 x 744 km, 92.7° (Epoch: 22 October)

Event Time Altitude Azimuth Distance (km) Brightness Sun altitude
Rises 18:50:28 0° 13° (NNE) 3,151 6.7 -5.5°
Reaches altitude 10° 18:53:01 10° 24° (NNE) 2,223 5.8 -5.9°
Maximum altitude 18:57:21 31° 86° (E) 1,263 4.1 -6.6°
Drops below altitude 10° 19:01:39 10° 148° (SSE) 2,205 5.5 -7.3°
Sets 19:04:10 0° 159° (SSE) 3,121 6.3 -7.6°
